Home > Time Zones > World Clock > Weather > U.S.A. > Adak > Past weeks

Flag for U.S.A. Weather past 2 weeks in Adak, Alaska, U.S.A.

Now
37 °F

Broken clouds.


Feels Like: 34 °F
Forecast: 35 / 40 °F
Wind: 5 mph from Northwest

Location: Adak

Current Time: Dec 21, 2014 at 2:01:09 PM

Latest Report: Dec 21, 2014 at 1:36 PM


Visibility: 7 mi

Pressure: 29.80 "Hg

Humidity: 87%

Dew point: 34 °F

Location of AdakLocation

Historic Weather in Adak — Graph

°F

Adak temperature yesterday

Maximum temperature yesterday: 39 °F (at 6:16 AM)
Minimum temperature yesterday: 37 °F (at 12:16 AM)
Average temperature yesterday: 38 °F

Past Weeks' High & Low Weather Summary

 TemperatureHumidityPressure
High41 °F (Dec 19, 3:16 PM)100% (Dec 15, 12:16 AM)29.80 "Hg (Dec 15, 12:16 AM)
Low18 °F (Dec 17, 8:56 PM)55% (Dec 17, 4:16 PM)28.57 "Hg (Dec 19, 3:36 AM)
Average35 °F82%29.11 "Hg
* Reported Dec 6 12:16 PM — Dec 21 12:56 PM, Adak, Weather by CustomWeather, © 2014

Note: Actual official high and low records may vary slightly from our data, if they occured in-between our weather recording intervals... More about our weather records

Advertising

Adak weather history for previous 24 hours

 ConditionsComfort  
Time TempWeatherWind HumidityBarometerVisibility
12:56 PM
Dec 21
36 °FMostly cloudy.10 mph93%29.80 "Hg3 mi
12:36 PM37 °FCloudy.13 mph87%29.80 "Hg3 mi
12:16 PM37 °FMostly cloudy.9 mph87%29.79 "Hg10 mi
11:16 AM37 °FBroken clouds.14 mph81%29.77 "Hg10 mi
10:56 AM37 °FMostly cloudy.13 mph81%29.77 "Hg4 mi
10:36 AM37 °FCloudy.10 mph93%29.77 "Hg9 mi
10:16 AM37 °FCloudy.8 mph93%29.76 "Hg10 mi
9:56 AM37 °FCloudy.7 mph93%29.75 "Hg10 mi
9:36 AM37 °FCloudy.9 mph87%29.73 "Hg10 mi
9:16 AM37 °FMostly cloudy.5 mph87%29.72 "Hg10 mi
8:56 AM37 °FCloudy.15 mph93%29.70 "Hg6 mi
8:36 AM37 °FMostly cloudy.13 mph87%29.69 "Hg8 mi
8:16 AM37 °FOvercast.No wind93%29.68 "Hg10 mi
7:56 AM37 °FOvercast.8 mph93%29.66 "Hg10 mi
7:36 AM37 °FOvercast.8 mph93%29.65 "Hg6 mi
7:16 AM37 °FMostly cloudy.8 mph93%29.63 "Hg10 mi
6:56 AM37 °FPartly cloudy.13 mph93%29.62 "Hg10 mi
6:36 AM37 °FOvercast.14 mph93%29.60 "Hg10 mi
6:16 AM37 °FOvercast.14 mph87%29.59 "Hg10 mi
5:56 AM37 °FPartly cloudy.15 mph87%29.58 "Hg10 mi
5:36 AM37 °FMostly cloudy.16 mph93%29.57 "Hg10 mi
5:16 AM37 °FMostly cloudy.18 mph87%29.56 "Hg10 mi
4:56 AM37 °FOvercast.18 mph93%29.55 "Hg4 mi
4:36 AM37 °FMostly cloudy.21 mph87%29.54 "Hg9 mi
4:16 AM39 °FOvercast.14 mph87%29.53 "Hg7 mi
3:56 AM37 °FOvercast.18 mph93%29.52 "Hg5 mi
3:36 AM37 °FMostly cloudy.15 mph93%29.51 "Hg5 mi
3:16 AM37 °FMostly cloudy.18 mph87%29.49 "Hg8 mi
2:56 AM37 °FMostly cloudy.20 mph87%29.48 "Hg10 mi
2:36 AM37 °FMostly cloudy.20 mph93%29.47 "Hg10 mi
2:16 AM39 °FMostly cloudy.20 mph87%29.46 "Hg9 mi
1:56 AM39 °FOvercast.18 mph87%29.44 "Hg10 mi
1:36 AM39 °FMostly cloudy.17 mph93%29.43 "Hg10 mi
1:16 AM39 °FMostly cloudy.18 mph93%29.41 "Hg5 mi
12:56 AM39 °FMostly cloudy.24 mph87%29.40 "Hg10 mi
12:36 AM39 °FMostly cloudy.18 mph87%29.38 "Hg10 mi
12:16 AM39 °FMostly cloudy.20 mph87%29.37 "Hg7 mi
11:56 PM
Dec 20
39 °FOvercast.22 mph87%29.35 "Hg5 mi
11:36 PM39 °FPartly cloudy.21 mph87%29.34 "Hg7 mi
11:16 PM39 °FPartly cloudy.24 mph87%29.33 "Hg10 mi
10:56 PM39 °FMostly cloudy.23 mph87%29.31 "Hg8 mi
10:36 PM39 °FMostly cloudy.20 mph87%29.30 "Hg9 mi
10:16 PM39 °FMostly cloudy.23 mph87%29.29 "Hg9 mi
9:56 PM39 °FOvercast.18 mph87%29.28 "Hg5 mi
9:36 PM39 °FOvercast.25 mph87%29.26 "Hg6 mi
9:16 PM39 °FMostly cloudy.21 mph87%29.25 "Hg7 mi
8:56 PM39 °FMostly cloudy.22 mph87%29.24 "Hg7 mi
8:36 PM39 °FOvercast.17 mph87%29.23 "Hg5 mi
8:16 PM39 °FOvercast.17 mph87%29.22 "Hg7 mi
7:56 PM39 °FOvercast.15 mph87%29.20 "Hg7 mi
7:36 PM37 °FMostly cloudy.20 mph93%29.19 "Hg10 mi
7:16 PM37 °FMostly cloudy.18 mph93%29.18 "Hg5 mi
6:56 PM39 °FOvercast.16 mph87%29.17 "Hg5 mi
6:36 PM37 °FMostly cloudy.18 mph93%29.15 "Hg10 mi
6:16 PM39 °FMostly cloudy.20 mph87%29.14 "Hg9 mi
5:56 PM39 °FMostly cloudy.21 mph87%29.13 "Hg5 mi
5:36 PM37 °FMostly cloudy.15 mph100%29.12 "Hg9 mi
5:16 PM39 °FMostly cloudy.25 mph87%29.10 "Hg7 mi
4:56 PM39 °FMostly cloudy.20 mph87%29.09 "Hg4 mi
4:36 PM39 °FCloudy.23 mph87%29.08 "Hg5 mi
4:16 PM39 °FMostly cloudy.20 mph87%29.07 "Hg5 mi
3:56 PM39 °FMostly cloudy.18 mph87%29.06 "Hg10 mi
3:36 PM39 °FMore clouds than sun.17 mph87%29.05 "Hg2 mi
3:16 PM39 °FMostly cloudy.17 mph93%29.03 "Hg9 mi
2:56 PM39 °FMostly cloudy.21 mph87%29.02 "Hg3 mi
2:36 PM37 °FMostly cloudy.26 mph87%29.01 "Hg4 mi
2:16 PM37 °FMostly cloudy.24 mph87%29.01 "Hg5 mi
Weather by CustomWeather, © 2014

See weather overviewHow to use our weather pages